Location: Arroyo de Valdeoliva
(40.1604°N, 4.9878°W)
Time: 16:39:42
(UTC+00:00)

Cosmos 2263 Rocket - Pass Details

Date: 11 December 2025
Orbit: 821 x 849 km, 71.0° (Epoch: 16 January)

Event Time Altitude Azimuth Distance (km) Brightness Sun altitude
Rises 18:21:07 0° 340° (NNW) 3,407 5.4 -16.0°
Reaches altitude 10° 18:23:38 10° 345° (NNW) 2,472 4.6 -16.5°
Maximum altitude 18:29:13 56° 63° (ENE) 1,008 2.2 -17.5°
Drops below altitude 10° 18:34:46 10° 141° (SE) 2,466 4.4 -18.5°
Sets 18:37:15 0° 146° (SE) 3,398 5.2 -19.0°
